Volver al catálogo

FENGYUN 1C DEB

ActivoPO
NORAD 30229·DEBRIS·🇨🇳 China

Lanzado May 10, 1999 desde Taiyuan Satellite Launch Center

Loading…

Próximos Pases (próximas 24 horas)

TLE

ActualizadoSource: Space-Track

Época: Sep 14, 2026, 05:33 UTC

1 30229U 99025WN  26257.23139166  .00004968  00000-0  93877-3 0  9998
2 30229  99.0441 348.2915 0034216 276.4751 110.5980 14.64566614 29441

Sigue FENGYUN 1C DEB en tiempo real con AllMySat

Download on the App Store